Probability
16 16 10 16 10 10 10 10 13 10 10 10 6 6 6 6 6 6 6 6 6 13 13 13 6 6 6 3 6 10 10 10 10 10 6 6 3 3 6 10 16 13 16
13 13 16 13 13 10 10 10 10 10 10 10 10 6 6 6 6 6 6 6 6 10 19 6 0 3 6 10 10 10 13 16 13 10 6 3 0 6 3 3 6 6 10
13 6 16 13 16 16 10 10 10 13 10 10 10 6 6 6 6 6 6 6 10 10 6 6 6 3 3 6 6 13 13 19 16 13 10 10 3 3 3 0 6 6 6
16 6 13 16 19 19 16 16 13 10 6 6 10 10 10 6 6 6 6 6 10 10 10 10 10 10 10 10 10 16 16 19 19 13 10 10 6 6 6 6 10 10 6
19 13 10 19 13 16 16 16 13 13 10 13 13 10 10 6 6 6 6 6 10 13 16 16 13 13 10 13 13 16 19 19 19 19 19 13 6 3 6 10 10 10 10
16 16 13 13 13 13 16 13 19 19 6 13 10 10 6 3 3 10 13 13 13 16 19 23 19 16 16 16 19 23 19 19 23 23 19 13 13 10 10 10 10 6 6
6 10 13 19 19 19 19 16 23 19 16 10 13 13 6 6 10 10 10 13 16 16 16 16 19 19 19 19 19 32 29 26 26 26 23 13 13 13 10 10 6 6 10
3 6 13 19 23 23 19 19 23 19 16 16 16 16 10 10 10 13 10 16 16 16 16 19 16 19 19 19 23 29 26 26 26 26 26 16 13 10 10 10 10 10 6
6 10 13 19 16 16 19 19 23 19 16 16 13 16 13 16 13 13 16 16 16 16 16 23 19 23 23 26 26 26 29 23 19 26 23 16 10 10 10 10 10 10 10
10 13 16 16 16 13 19 19 26 23 16 16 13 13 16 19 16 19 19 16 19 16 16 19 19 23 19 19 19 19 19 23 23 19 23 23 23 16 10 10 10 10 13
13 13 16 19 10 16 16 16 16 16 19 23 19 16 19 23 23 23 19 19 16 16 23 19 16 19 19 19 19 19 19 23 19 19 23 23 26 23 16 10 10 10 10
10 13 13 16 16 13 10 10 19 13 19 26 29 26 23 16 16 23 23 23 16 16 23 23 19 16 19 19 19 19 23 23 23 26 23 26 19 19 16 13 13 13 13
13 13 13 16 16 13 6 13 16 16 19 19 23 26 23 23 23 23 23 23 19 16 16 19 16 16 19 19 19 19 23 23 19 19 19 23 19 19 19 16 16 16 16
13 13 16 16 19 13 13 19 16 13 10 16 19 26 26 23 29 26 23 19 19 19 19 13 16 16 13 16 16 19 19 19 16 16 16 19 16 19 19 19 16 16 13
13 16 19 19 16 19 19 16 16 10 13 16 23 23 23 26 23 23 26 26 23 23 19 19 16 13 16 13 13 16 19 19 19 19 23 23 16 16 16 16 16 13 13
19 19 19 16 23 19 23 19 16 13 13 13 23 16 16 23 23 19 19 23 19 19 19 16 16 13 16 13 13 13 16 16 19 19 23 23 23 19 13 13 10 10 10
26 23 19 23 19 19 16 19 16 16 13 16 19 23 19 29 19 19 19 19 19 19 19 19 16 16 16 13 10 6 16 19 19 19 19 19 16 13 13 13 6 6 6
23 16 16 16 19 19 19 19 16 19 13 13 13 19 19 19 19 19 16 16 16 16 16 16 16 16 13 10 6 10 13 19 19 16 13 16 16 13 13 13 13 13 13
13 13 16 16 16 13 19 19 19 19 16 10 10 16 16 16 13 13 13 13 13 13 13 13 13 13 13 3 6 6 13 13 10 10 6 10 10 6 3 6 13 13 10
13 6 6 10 13 13 13 13 13 13 16 16 13 13 13 13 10 6 6 10 13 13 13 10 10 10 6 3 3 6 10 13 10 6 6 6 3 3 0 0 3 6 10
10 10 10 10 10 16 13 16 13 13 13 13 13 13 13 10 10 6 6 10 13 13 13 10 6 6 6 3 3 3 3 3 6 6 6 0 0 0 0 0 0 0 0
6 10 10 13 10 13 16 16 16 13 13 13 13 13 6 6 10 10 10 10 10 13 10 13 10 3 3 0 0 0 0 0 0 3 0 0 0 0 0 0 0 0 0
13 13 13 13 10 10 10 10 10 10 10 10 10 13 10 6 10 10 10 13 13 13 6 6 6 3 0 0 0 0 0 0 0 0 0 0 0 0 0 0 0 0 3
10 10 6 6 6 10 6 10 10 6 10 10 13 13 13 10 13 6 6 6 6 3 3 3 3 0 0 0 0 0 0 0 0 0 0 0 0 0 0 0 0 0 0
6 6 6 6 3 3 3 3 3 3 6 10 10 10 13 10 10 10 10 6 6 3 3 0 0 0 0 0 0 0 0 0 0 0 0 0 0 0 0 0 0 0 0
3 3 3 3 3 3 3 3 3 3 3 3 6 6 10 13 13 10 6 0 3 0 0 0 0 0 0 0 0 0 0 0 0 0 0 0 0 0 0 0 0 0 0
Height
5904 5903 5902 5901 5900 5899 5898 5897 5897 5896 5895 5894 5893 5892 5891 5890 5889 5889 5889 5889 5888 5888 5888 5887 5887 5887 5888 5888 5888 5888 5888 5888 5888 5888 5888 5889 5889 5889 5890 5890 5890 5890 5890
5904 5903 5902 5901 5900 5899 5898 5897 5896 5895 5894 5893 5893 5892 5891 5890 5889 5887 5887 5886 5886 5886 5886 5886 5886 5886 5886 5886 5886 5886 5886 5885 5885 5886 5886 5887 5888 5887 5887 5887 5887 5887 5887
5904 5902 5901 5900 5899 5898 5897 5896 5895 5894 5894 5893 5892 5891 5890 5889 5888 5886 5885 5884 5884 5884 5884 5884 5884 5884 5884 5884 5884 5884 5883 5883 5883 5883 5884 5884 5884 5884 5884 5884 5884 5884 5884
5903 5902 5900 5899 5898 5897 5896 5895 5894 5893 5892 5892 5891 5890 5889 5888 5886 5885 5884 5883 5882 5882 5882 5882 5882 5882 5882 5882 5881 5881 5881 5881 5881 5881 5881 5881 5881 5881 5881 5881 5880 5880 5879
5902 5900 5899 5898 5896 5895 5894 5894 5893 5892 5891 5890 5889 5888 5888 5886 5885 5884 5882 5881 5881 5880 5880 5880 5879 5879 5879 5879 5879 5879 5879 5878 5878 5878 5878 5877 5877 5877 5877 5877 5877 5876 5875
5901 5899 5897 5896 5895 5894 5893 5892 5891 5890 5889 5888 5888 5887 5886 5885 5884 5883 5882 5880 5879 5879 5879 5878 5877 5877 5876 5876 5876 5876 5875 5875 5875 5875 5874 5874 5874 5873 5873 5873 5872 5871 5870
5899 5897 5896 5895 5893 5892 5891 5890 5889 5888 5887 5886 5886 5885 5884 5884 5883 5882 5880 5879 5878 5877 5877 5876 5875 5874 5874 5873 5873 5872 5872 5872 5872 5871 5871 5870 5870 5869 5869 5868 5867 5867 5866
5897 5896 5894 5893 5891 5890 5889 5887 5886 5885 5884 5884 5883 5882 5882 5882 5881 5880 5878 5877 5876 5875 5874 5873 5872 5872 5871 5870 5869 5869 5868 5868 5868 5867 5867 5866 5865 5864 5864 5863 5863 5862 5861
5895 5894 5892 5891 5889 5888 5886 5884 5883 5882 5881 5881 5881 5880 5880 5879 5878 5877 5876 5875 5874 5873 5872 5871 5870 5868 5867 5866 5865 5865 5864 5864 5863 5863 5862 5862 5861 5860 5858 5858 5857 5857 5856
5891 5890 5889 5887 5886 5884 5883 5881 5880 5879 5879 5878 5878 5877 5876 5875 5874 5874 5873 5872 5871 5870 5869 5867 5866 5865 5863 5862 5861 5860 5859 5859 5859 5858 5858 5857 5856 5855 5853 5852 5851 5850 5850
5888 5886 5885 5884 5882 5881 5879 5878 5877 5876 5875 5875 5874 5873 5872 5871 5870 5870 5869 5867 5866 5866 5864 5863 5862 5861 5859 5858 5857 5855 5854 5854 5853 5853 5852 5851 5850 5849 5848 5846 5845 5844 5843
5883 5882 5881 5879 5878 5877 5875 5874 5873 5872 5871 5870 5870 5869 5868 5867 5866 5865 5864 5862 5861 5860 5859 5858 5857 5856 5855 5853 5852 5850 5849 5848 5847 5847 5846 5845 5844 5843 5841 5840 5839 5837 5836
5879 5878 5876 5875 5874 5872 5871 5870 5869 5867 5866 5865 5864 5864 5863 5862 5861 5860 5858 5856 5855 5854 5853 5852 5851 5850 5849 5848 5846 5845 5843 5842 5841 5840 5839 5838 5837 5836 5834 5833 5831 5830 5829
5874 5873 5872 5870 5869 5868 5866 5865 5864 5862 5861 5860 5858 5858 5857 5856 5855 5854 5852 5851 5849 5848 5847 5846 5845 5844 5842 5841 5840 5838 5837 5835 5834 5833 5832 5830 5829 5828 5826 5825 5823 5822 5820
5868 5868 5866 5865 5863 5862 5861 5860 5859 5857 5856 5854 5853 5852 5851 5850 5848 5847 5845 5844 5843 5841 5840 5839 5838 5837 5836 5834 5833 5831 5830 5828 5827 5825 5824 5822 5821 5819 5818 5816 5815 5813 5812
5862 5861 5860 5859 5857 5856 5855 5854 5853 5851 5849 5848 5846 5845 5844 5843 5842 5840 5838 5837 5836 5834 5833 5832 5831 5830 5828 5826 5825 5823 5822 5820 5819 5817 5815 5814 5812 5811 5809 5807 5806 5804 5803
5855 5855 5854 5852 5851 5850 5849 5847 5846 5844 5842 5841 5839 5838 5837 5836 5834 5832 5830 5829 5827 5826 5826 5825 5823 5822 5820 5818 5816 5815 5813 5811 5810 5808 5807 5805 5803 5801 5800 5798 5797 5795 5794
5848 5847 5846 5845 5844 5843 5842 5840 5838 5836 5835 5834 5832 5831 5829 5828 5826 5824 5822 5820 5819 5818 5817 5816 5815 5813 5811 5810 5808 5806 5804 5802 5800 5799 5797 5795 5793 5791 5790 5789 5787 5786 5784
5840 5839 5839 5838 5836 5835 5834 5831 5830 5828 5827 5825 5824 5822 5821 5819 5817 5815 5813 5812 5811 5811 5809 5808 5806 5805 5803 5801 5799 5797 5795 5793 5791 5790 5788 5786 5784 5782 5781 5780 5778 5777 5775
5831 5830 5830 5829 5828 5827 5825 5824 5822 5820 5819 5817 5815 5814 5812 5810 5808 5807 5806 5804 5803 5802 5801 5800 5798 5796 5795 5793 5791 5789 5786 5784 5782 5780 5778 5776 5774 5772 5771 5770 5769 5768 5766
5821 5820 5820 5819 5819 5817 5816 5815 5814 5812 5811 5809 5807 5805 5803 5802 5801 5799 5798 5796 5795 5794 5793 5792 5790 5788 5786 5784 5782 5779 5777 5775 5772 5770 5769 5766 5764 5762 5761 5759 5758 5757 5756
5811 5811 5810 5810 5809 5808 5807 5806 5805 5804 5802 5800 5799 5797 5795 5794 5793 5791 5790 5789 5787 5786 5785 5783 5781 5779 5777 5775 5773 5770 5768 5765 5763 5761 5758 5756 5755 5753 5751 5749 5748 5747 5746
5801 5801 5801 5800 5799 5799 5798 5797 5796 5795 5794 5792 5790 5788 5787 5785 5784 5783 5781 5780 5779 5777 5776 5774 5773 5770 5768 5765 5763 5761 5758 5756 5753 5751 5749 5746 5744 5743 5741 5740 5738 5737 5736
5792 5791 5791 5790 5790 5789 5788 5787 5787 5785 5784 5783 5781 5779 5778 5776 5775 5773 5772 5771 5770 5768 5767 5765 5763 5761 5759 5756 5754 5751 5749 5747 5744 5742 5739 5737 5735 5733 5732 5730 5729 5728 5726
5781 5781 5781 5780 5780 5779 5778 5777 5777 5775 5774 5773 5772 5770 5768 5767 5765 5764 5762 5761 5760 5758 5757 5755 5753 5751 5749 5747 5744 5741 5739 5737 5735 5732 5730 5728 5726 5725 5723 5721 5719 5718 5716
5771 5771 5770 5770 5769 5768 5767 5767 5766 5765 5765 5764 5762 5761 5759 5758 5756 5754 5753 5751 5750 5748 5746 5745 5743 5741 5739 5737 5734 5731 5729 5727 5725 5723 5721 5719 5718 5716 5714 5712 5710 5708 5707
Wind_Speed
8 8 8 8 8 8 7 6 6 6 5 5 5 4 5 5 5 5 6 6 7 7 8 7 7 7 8 9 9 10 11 11 11 11 11 11 12 12 13 13 13 14 14
7 8 8 8 9 8 8 7 6 6 6 5 5 5 6 5 6 6 7 7 8 8 8 8 8 8 8 9 9 10 11 11 12 11 11 12 13 14 14 14 14 15 15
8 8 8 8 8 9 8 8 8 7 6 6 6 6 6 6 6 7 7 7 7 8 9 9 9 8 9 10 11 11 11 11 11 11 12 12 13 14 15 16 15 16 17
8 9 9 9 9 9 9 8 8 8 6 6 6 6 6 7 7 7 7 7 7 7 8 9 9 9 10 10 10 11 12 12 12 12 12 13 12 12 14 15 16 17 18
8 9 9 9 10 9 8 9 9 9 8 7 7 6 6 7 8 8 8 8 7 7 8 9 10 10 11 10 11 11 12 12 12 12 12 13 14 13 14 15 16 17 18
9 9 9 10 10 10 10 10 10 10 9 8 8 7 7 7 8 8 8 8 8 8 8 9 10 11 11 11 11 12 12 13 14 13 13 14 15 16 16 17 18 19 19
9 9 9 10 10 11 11 11 11 11 10 9 9 9 9 9 9 10 9 9 8 9 9 10 11 12 12 12 13 14 14 13 13 13 14 15 16 17 17 18 19 20 20
10 10 10 11 11 12 13 13 12 12 11 10 9 10 10 10 11 11 11 10 10 11 11 11 12 13 14 14 15 16 16 16 15 15 16 16 17 18 18 19 19 20 21
12 12 12 12 12 13 14 14 14 13 13 12 12 11 12 12 12 13 13 13 13 13 13 13 14 14 15 16 17 17 18 18 18 18 18 19 20 20 20 20 20 20 21
14 14 13 13 14 15 15 15 15 14 13 13 13 13 14 14 14 14 15 15 16 15 15 16 16 16 16 17 17 18 19 20 21 20 20 21 21 21 22 22 22 22 22
16 16 16 15 15 15 15 15 15 15 15 15 15 15 16 16 16 17 17 18 18 18 17 18 18 19 19 19 18 19 20 21 22 22 23 22 22 23 23 24 24 24 25
17 17 17 17 16 15 15 16 16 17 17 17 17 17 17 17 17 18 18 19 19 20 20 20 21 21 21 21 20 21 22 22 22 23 23 24 24 25 25 25 26 26 27
18 18 19 19 18 17 18 18 18 18 18 18 18 18 19 19 19 20 20 20 20 21 21 22 23 23 23 23 23 23 23 23 24 24 25 25 26 26 27 28 28 28 29
19 19 20 20 19 20 20 20 20 20 20 20 20 20 21 21 21 22 22 22 22 22 23 23 24 24 25 25 25 26 26 26 27 27 27 27 28 28 29 29 29 29 29
22 22 21 21 21 21 22 21 22 22 22 22 22 22 23 23 23 23 23 23 23 24 25 25 25 26 26 27 27 28 28 28 29 30 30 29 30 30 30 30 29 29 30
23 23 23 24 24 24 24 24 24 24 25 24 25 25 24 24 25 25 26 26 26 26 25 25 26 27 28 28 29 29 30 31 31 31 31 32 32 32 32 32 32 32 32
25 25 25 25 25 26 27 27 27 27 27 27 26 27 27 27 27 27 28 28 27 26 26 26 28 29 29 30 30 31 31 32 32 32 33 33 33 33 33 33 33 33 32
26 27 28 28 28 28 29 29 28 27 28 28 28 28 28 28 29 29 28 27 26 27 27 27 28 29 30 31 31 31 32 32 32 33 34 34 34 34 34 33 33 32 33
28 27 28 29 30 30 31 30 29 29 29 30 30 29 30 30 30 29 28 27 27 27 27 27 28 29 30 31 31 31 31 32 33 34 34 35 34 33 33 33 32 32 32
30 29 29 30 31 31 31 31 30 30 30 30 29 30 30 30 30 29 28 28 29 28 27 28 29 30 31 32 32 32 32 32 33 34 34 35 34 34 33 33 33 32 32
32 31 31 32 32 33 32 31 31 31 32 32 31 31 30 30 30 30 29 28 27 27 28 28 29 30 31 31 32 33 34 33 33 33 34 34 34 33 33 33 33 33 33
34 33 32 33 34 34 33 32 32 32 33 33 32 31 30 31 31 30 30 29 29 28 28 29 30 31 32 32 33 33 34 34 34 34 34 34 34 33 33 33 33 34 34
34 34 35 35 34 34 34 34 34 33 33 32 31 30 30 31 31 31 31 31 31 30 30 31 31 32 33 33 33 33 33 33 34 34 34 34 33 32 32 32 32 32 33
34 35 35 34 34 35 35 35 34 34 33 32 31 31 31 32 33 33 33 33 33 33 33 33 33 33 33 33 33 34 34 34 34 34 34 34 32 33 33 32 32 32 31
35 36 36 35 35 36 35 35 35 34 34 33 33 33 33 34 33 33 33 34 33 34 34 34 34 34 33 34 34 34 33 33 33 33 32 31 31 31 32 32 32 32 32
36 36 36 36 36 36 36 35 35 35 34 34 34 34 35 35 34 34 34 33 34 33 33 34 34 34 33 34 34 34 33 33 32 31 30 30 30 31 31 30 30 30 31
Wind_Direction
0 3 4 4 2 0 357 352 355 354 346 341 344 343 337 328 316 296 276 272 273 277 283 280 274 270 267 267 272 272 266 264 266 265 267 265 265 265 267 266 267 267 268
347 351 355 355 349 347 349 346 345 343 336 335 335 331 330 324 315 307 279 273 272 274 277 285 280 276 270 265 267 269 270 272 269 266 268 268 268 267 267 266 266 268 268
341 344 346 347 341 340 342 341 337 333 330 332 330 326 328 324 314 308 292 277 272 271 273 280 280 276 273 268 267 270 272 275 274 271 270 270 271 269 268 270 269 268 269
326 326 329 333 337 338 342 342 339 337 332 327 326 324 324 324 317 313 305 291 285 272 269 274 278 278 282 280 275 273 271 273 273 275 274 276 280 277 267 270 272 273 273
316 322 331 331 330 331 336 339 336 331 325 320 315 315 314 319 321 321 314 293 284 284 278 274 278 278 278 281 281 278 276 276 277 277 278 279 282 281 275 271 274 277 278
313 321 333 337 332 327 326 326 323 317 315 312 310 311 312 315 317 316 313 302 291 292 290 288 282 281 282 282 285 281 280 279 277 277 279 280 281 282 276 274 274 277 277
317 320 328 334 327 321 319 316 314 311 307 303 301 303 306 310 311 313 312 306 297 296 293 290 287 288 285 285 285 283 278 281 282 282 282 280 279 279 279 277 277 276 275
313 312 317 324 327 323 319 315 311 305 302 298 294 297 300 304 308 309 309 306 300 298 295 292 291 289 286 283 284 284 280 280 281 282 284 284 284 285 283 282 280 278 278
303 305 308 310 314 316 317 315 309 303 299 298 297 297 299 301 302 303 303 300 299 296 291 290 292 292 288 285 284 284 282 280 281 283 283 285 287 288 288 286 284 283 282
298 302 303 303 305 307 309 311 309 305 301 300 301 299 297 296 297 297 295 292 291 290 289 288 289 289 289 288 287 286 281 279 281 282 283 284 285 287 287 286 285 284 284
295 297 297 300 302 301 303 306 308 305 301 299 297 295 295 294 292 292 291 289 287 286 285 285 285 286 286 288 287 287 283 281 281 282 284 284 284 286 285 284 284 283 283
293 296 296 296 297 299 300 306 306 302 298 296 295 294 292 291 290 290 291 290 288 285 283 283 283 284 285 286 287 289 286 283 281 282 283 284 283 285 285 284 283 282 281
290 294 297 296 295 297 299 301 301 298 296 294 291 293 292 291 289 288 287 289 290 286 282 282 282 283 284 285 285 287 287 284 283 283 283 284 283 284 284 283 283 282 280
288 290 294 295 295 296 298 298 298 294 295 292 291 291 291 290 292 291 289 288 288 286 284 283 283 284 284 285 285 286 286 284 284 285 286 284 283 284 284 284 283 283 280
286 289 292 290 290 291 294 294 294 293 293 293 294 293 293 293 293 293 289 287 289 287 284 282 282 283 284 285 285 287 287 286 283 285 285 283 284 284 283 283 283 282 281
281 284 286 286 286 286 289 290 289 289 290 290 291 291 293 292 292 292 292 291 292 288 285 283 281 281 282 283 284 285 285 286 284 284 284 283 282 281 281 281 282 281 280
278 281 283 284 286 287 289 288 288 289 290 290 291 290 291 292 293 292 291 290 289 286 285 285 284 283 283 283 284 284 285 285 282 283 283 283 282 280 279 281 281 281 281
280 281 283 285 285 288 290 289 293 293 293 293 292 290 291 294 293 291 288 287 286 285 286 286 286 285 285 284 284 284 285 284 283 283 283 284 282 281 281 282 283 283 283
278 280 283 285 285 287 290 292 294 294 294 294 293 292 291 292 292 290 286 285 285 286 287 287 287 288 289 289 288 287 287 286 287 286 284 284 282 282 282 283 283 283 283
275 278 281 284 286 287 289 292 292 293 293 294 293 292 292 291 291 290 286 286 285 286 288 289 291 290 290 291 291 289 289 289 288 287 287 286 283 282 282 282 282 281 282
273 276 279 282 284 286 288 290 291 291 292 292 291 291 291 290 290 290 289 287 286 287 288 289 292 293 291 292 292 291 291 291 289 288 288 288 285 283 283 282 281 281 281
272 275 277 280 282 285 287 288 288 289 290 290 290 290 289 288 288 287 287 287 287 287 288 289 291 292 292 292 293 293 293 291 289 288 289 288 284 283 282 282 281 280 280
273 275 277 278 279 282 285 287 287 286 287 288 289 289 286 286 286 285 285 286 287 287 286 287 289 291 292 292 293 293 293 292 291 289 288 287 284 283 283 282 282 280 280
272 274 276 277 278 280 283 285 285 285 286 287 287 287 286 285 285 285 284 283 284 285 286 286 288 290 291 291 291 291 291 291 291 290 288 287 286 285 285 284 283 281 281
270 273 275 276 277 279 281 283 283 283 284 285 285 285 285 285 285 284 283 282 284 284 285 285 287 288 289 289 290 290 290 291 289 289 288 287 286 285 285 285 285 283 282
270 272 275 276 277 278 280 281 282 282 282 283 284 285 285 284 284 283 283 283 283 284 284 286 289 289 289 289 290 289 289 289 290 289 289 287 287 286 285 284 284 284 284